| time (UTC) | temp C | wind direction | speed KPH | gust KPH | rain 1hr cm | rain 24hr cm | rain mn cm | humidity % | barometer mb |
| 20260507090038 | 13 | 95 | 3.2 | 8.0 | 0.00 | 0.00 | 0.00 | 77 | 1020.4 |
| 20260507085019 | 13 | 66 | 1.6 | 4.8 | 0.00 | 0.00 | 0.00 | 77 | 1020.4 |
| 20260507084021 | 13 | 317 | 1.6 | 3.2 | 0.00 | 0.00 | 0.00 | 77 | 1020.4 |
| 20260507083022 | 13 | 99 | 3.2 | 6.4 | 0.00 | 0.00 | 0.00 | 77 | 1020.4 |
| 20260507082023 | 13 | 106 | 3.2 | 9.7 | 0.00 | 0.00 | 0.00 | 77 | 1020.3 |
| 20260507081025 | 13 | 84 | 1.6 | 4.8 | 0.00 | 0.00 | 0.00 | 77 | 1020.3 |
| 20260507080016 | 13 | 89 | 1.6 | 6.4 | 0.00 | 0.00 | 0.00 | 77 | 1020.2 |
| 20260507075017 | 13 | 112 | 1.6 | 3.2 | 0.00 | 0.00 | 0.00 | 76 | 1020.0 |
| 20260507074019 | 13 | 51 | 0.0 | 3.2 | 0.00 | 0.00 | 0.00 | 75 | 1020.1 |
| 20260507073021 | 13 | 83 | 1.6 | 6.4 | 0.00 | 0.00 | 0.00 | 74 | 1020.1 |
| 20260507072022 | 13 | 110 | 1.6 | 6.4 | 0.00 | 0.00 | 0.00 | 74 | 1020.0 |
| 20260507071024 | 13 | 101 | 1.6 | 8.0 | 0.00 | 0.00 | 0.00 | 74 | 1020.0 |
| 20260507070025 | 13 | 333 | 1.6 | 3.2 | 0.00 | 0.00 | 0.00 | 74 | 1020.0 |
| 20260507065016 | 13 | 88 | 1.6 | 8.0 | 0.00 | 0.00 | 0.00 | 75 | 1019.9 |
| 20260507064017 | 13 | 338 | 1.6 | 3.2 | 0.00 | 0.00 | 0.00 | 74 | 1019.8 |
| 20260507063039 | 13 | 126 | 1.6 | 8.0 | 0.00 | 0.00 | 0.00 | 75 | 1019.8 |
| 20260507062020 | 13 | 86 | 3.2 | 8.0 | 0.00 | 0.00 | 0.00 | 75 | 1019.8 |
| 20260507061042 | 13 | 108 | 1.6 | 4.8 | 0.00 | 0.00 | 0.00 | 74 | 1019.8 |
| 20260507060023 | 13 | 96 | 0.0 | 3.2 | 0.00 | 0.00 | 0.00 | 74 | 1019.8 |
| 20260507055045 | 13 | 290 | 1.6 | 4.8 | 0.00 | 0.00 | 0.00 | 74 | 1019.8 |
| 20260507054016 | 13 | 247 | 0.0 | 4.8 | 0.00 | 0.00 | 0.00 | 74 | 1019.8 |
| 20260507053558 | 13 | 131 | 3.2 | 6.4 | 0.00 | 0.00 | 0.00 | 74 | 1019.8 |
| 20260507053023 | 13 | 91 | 3.2 | 8.0 | 0.00 | 0.00 | 0.00 | 74 | 1019.8 |
| 20260507052021 | 13 | 28 | 1.6 | 4.8 | 0.00 | 0.00 | 0.00 | 74 | 1019.8 |
| 20260507051022 | 13 | 290 | 1.6 | 4.8 | 0.00 | 0.00 | 0.00 | 74 | 1019.8 |
| 20260507050519 | 13 | 282 | 0.0 | 4.8 | 0.00 | 0.00 | 0.00 | 73 | 1019.5 |
| 20260507050038 | 13 | 114 | 1.6 | 9.7 | 0.00 | 0.00 | 0.00 | 73 | 1019.7 |
| 20260507045020 | 13 | 282 | 3.2 | 4.8 | 0.00 | 0.00 | 0.00 | 73 | 1019.8 |
| 20260507044021 | 13 | 307 | 1.6 | 6.4 | 0.00 | 0.00 | 0.00 | 72 | 1019.8 |
| 20260507043022 | 13 | 49 | 0.0 | 3.2 | 0.00 | 0.00 | 0.00 | 72 | 1019.8 |
| 20260507042024 | 13 | 288 | 1.6 | 4.8 | 0.00 | 0.00 | 0.00 | 72 | 1019.7 |
| 20260507041025 | 13 | 271 | 1.6 | 6.4 | 0.00 | 0.00 | 0.00 | 71 | 1019.5 |
| 20260507040016 | 14 | 147 | 3.2 | 6.4 | 0.00 | 0.00 | 0.00 | 71 | 1019.4 |
| 20260507035525 | 14 | 123 | 1.6 | 6.4 | 0.00 | 0.00 | 0.00 | 70 | 1019.7 |
| 20260507034536 | 14 | 69 | 1.6 | 4.8 | 0.00 | 0.00 | 0.00 | 70 | 1019.6 |
| 20260507033522 | 14 | 281 | 1.6 | 4.8 | 0.00 | 0.00 | 0.00 | 69 | 1019.8 |
| 20260507032538 | 14 | 282 | 1.6 | 3.2 | 0.00 | 0.00 | 0.00 | 69 | 1019.6 |
| 20260507031516 | 14 | 297 | 1.6 | 6.4 | 0.00 | 0.00 | 0.00 | 68 | 1019.6 |
| 20260507030517 | 14 | 136 | 1.6 | 6.4 | 0.00 | 0.00 | 0.00 | 68 | 1019.7 |
| 20260507025519 | 14 | 285 | 1.6 | 6.4 | 0.00 | 0.00 | 0.00 | 68 | 1019.7 |
| 20260507024520 | 14 | 92 | 3.2 | 8.0 | 0.00 | 0.00 | 0.00 | 68 | 1019.7 |
| 20260507023541 | 15 | 252 | 1.6 | 6.4 | 0.00 | 0.00 | 0.00 | 67 | 1019.7 |
| 20260507022522 | 15 | 54 | 1.6 | 6.4 | 0.00 | 0.00 | 0.00 | 68 | 1019.5 |
| 20260507021643 | 15 | 333 | 1.6 | 6.4 | 0.00 | 0.00 | 0.00 | 67 | 1019.7 |
| 20260507020525 | 15 | 270 | 3.2 | 6.4 | 0.00 | 0.00 | 0.00 | 67 | 1019.5 |
| 20260507015515 | 15 | 278 | 1.6 | 6.4 | 0.00 | 0.00 | 0.00 | 66 | 1019.5 |
| 20260507014516 | 15 | 297 | 3.2 | 6.4 | 0.00 | 0.00 | 0.00 | 65 | 1019.3 |
| 20260507013518 | 15 | 273 | 3.2 | 6.4 | 0.00 | 0.00 | 0.00 | 66 | 1019.4 |